Content
SEND FEEDBACK

Daily
Averages
Monthly
Summary
United States of America

GLEN CANYON CITY, UTAH


Home > North America > United States > Utah
Elevation: 4133 feet     Latitude: 37 05N     Longitude: 111 40W

WEATHER
 
SELECT A DAY
Number of Records: 194,562;   Date Range: 1/1/95 - 7/7/14
 
SHARE

PRINT THIS DATA

[ ← Previous Day ]
WEATHER ALMANAC - MARCH 31, 2013
[ Next Day → ]
[ °C ]   °F
Weather ElementAverageHighLow
Temperature63.7 °F75.9 °F (1:53 pm)51.1 °F (5:53 am)
Dewpoint28.9 °F32 °F (8:53 pm)26.1 °F (5:53 pm)
Humidity28.4 %43 % (5:53 am)17 % (1:53 pm)
Barometer29.89 in29.98 in (6:53 am)29.79 in (5:53 pm)
Wind Speed4 mph9.2 mph (1:53 pm)
Weather ElementAverage
Visibility10 mi
Wind DirectionESE (123 °)

Weather ElementTotal
Precipitation---
Heating Degree Days1.5 (Base 65)
Growing Degree Days13.5 (Base 50)
Averaged from 23 records on March 31, 2013
WEATHER CONDITIONS BREAKOUT
WIND DIRECTION BREAKOUT
WEATHER BY HOUR - MARCH 31, 2013
[ °C ]   °F
Local TimeTemperatureDewpointHumidityBarometerVisibilityWind DirectionWind SpeedGust SpeedPrecipitationEventsConditions
1:53 AM57.9 °F30.0 °F35 %29.92 in10.0 miWest (260°)4.6 mphClear
2:53 AM54.0 °F30.0 °F40 %29.92 in10.0 miWSW (240°)3.5 mphClear
3:53 AM54.0 °F28.9 °F38 %29.93 in10.0 miSSW (210°)3.5 mphClear
4:53 AM55.0 °F28.9 °F37 %29.94 in10.0 miSSW (210°)4.6 mphClear
5:53 AM51.1 °F28.9 °F43 %29.96 in10.0 miCalmClear
6:53 AM53.1 °F28.9 °F40 %29.98 in10.0 miSE (130°)3.5 mphClear
7:53 AM57.9 °F28.9 °F33 %29.98 in10.0 miCalmClear
8:53 AM59.0 °F28.0 °F31 %29.97 in10.0 miNW (320°)6.9 mphClear
9:53 AM62.1 °F28.9 °F29 %29.97 in10.0 miNorth (350°)5.8 mphClear
10:53 AM66.9 °F28.9 °F24 %29.96 in10.0 miNorth (360°)5.8 mphClear
11:53 AM70.0 °F30.0 °F23 %29.94 in10.0 miNorth (10°)5.8 mphClear
12:53 PM72.0 °F28.9 °F20 %29.91 in10.0 miNorth (350°)8.1 mphClear
1:53 PM75.9 °F28.0 °F17 %29.87 in10.0 miNorth (10°)9.2 mphClear
2:53 PM75.0 °F28.0 °F18 %29.85 in10.0 miVariable4.6 mphClear
3:53 PM73.0 °F28.0 °F19 %29.82 in10.0 miCalmPartly Cloudy
4:53 PM73.0 °F27.0 °F18 %29.80 in10.0 miSSE (150°)9.2 mphClear
5:53 PM72.0 °F26.1 °F18 %29.79 in10.0 miCalmClear
6:53 PM69.1 °F28.0 °F22 %29.79 in10.0 miNNE (30°)3.5 mphPartly Cloudy
7:53 PM68.0 °F26.1 °F21 %29.80 in10.0 miNNE (30°)5.8 mphMostly Cloudy
8:53 PM64.9 °F32.0 °F29 %29.81 in10.0 miNNE (20°)3.5 mphPartly Cloudy
9:53 PM62.1 °F30.9 °F31 %29.83 in10.0 miCalmClear
10:53 PM61.0 °F30.0 °F31 %29.81 in10.0 miSSE (150°)3.5 mphClear
11:53 PM59.0 °F32.0 °F36 %29.81 in10.0 miCalmClear
Hourly data recorded from KPGA, located miles away from Glen Canyon City, Utah







STORIES FROM OUR PARTNERS